Showing default

ATS 6, 7318

Orbit data source: Space-Track

ATS 6, 7318 is a payload satellite owned by GSFC (US) in GEO that was launched on Thu, 30 May 1974 UTC via a TITAN IIIC launch vehicle from the Air Force Eastern Test Range (AFETR). Payloads include a variety of satellites, spacecraft, and rockets equipped with specific instruments for various scientific and technological missions. These include communications satellites like Starlink; space stations such as the ISS; scientific satellites like the Hubble; Earth observation satellites from companies like Planet Labs, Umbra, and HawkEye 360; GPS; miniature CubeSats for education and research; and military/defense satellites.

Not visible in the next 10 days
ATS 6 details
Identifier
7318, 1974-039A
Orbit
GEO
Last TLE update12 hours ago
Origin
Flag of USGSFC (US)
ManufacturerFairchild
MissionNon-operational Civil Communications
Bus & MotorATS F, Unknown motor
Mass1,357 kg wet, 1,308 kg dry
Launch date (UTC)
1974-05-30 (51 years ago)
Launch vehicle
TITAN IIIC
Launch site
Air Force Eastern Test Range (AFETR)
Object type
Payload
Rocket body
Debris
Shape & HBRIrr + 2 Pan, 9.14 m
Radar Cross Section15.383 m², Large (>1 m²)

Expand to show TLE details & history

TLE from 12 hours ago
0 ATS 6
1 07318U 74039A   24361.23996896  .00000068  00000-0  00000-0 0  9994
2 07318   3.2801 264.1093 0032333 324.2794 295.1444  1.01976111116515
Epoch: 2024-12-26T05:45Z
Definitive object data (Epoch: 2024-12-26T05:45:33.318Z)
Latitude-3.22186°
Longitude-18.44538°
Altitude35,259.063 km
Speed3.096 km/s
True Right ascension10h 52m 39s
True Declination-3° 13' 07"
Sunlit
Object was in daylight at TLE epoch
Visualization TLE readout
Latitude3.25684°
Longitude165.47977°
Altitude35,378.528 km
Speed3.087 km/s
Apparent Right ascension23h 35m 08s
Apparent Declination-2° 19' 07"
Sunlit
Object is in daylight
Visualization observer readout
Local Sidereal Time17:06:44
Azimuth87.215° E
Elevation-6.932°
Doppler factor1
Orbital elements
Apogee altitude35,451.365 km
Perigee altitude35,181.743 km
Semi-major axis41,694.691 km
Eccentricity0.0032333
Inclination3.2801°
RAAN264.1093°
Arg. of periapsis324.2794°
True anomaly294.80843°
Mean anomaly295.1444°
Eccentric anomaly294.97647°
Mean motion0.25493 °/min
BSTARUnknown
Orbital period1412.15 mins
Loading historical data...
7318 neighbors
Authenticating...
Loading maneuver chart data...
Loading historical data...
Loading historical data...
Loading historical data...
Loading historical data...
Loading historical data...
Loading historical data...
Loading historical data...

ATS 6 Visibility forecast

Observer location: undefined°, undefined

ATS 6 is not visible in the next 10 days
Span
Click to sort rows by Start time (UTC) header in descending order
Start Az.
Max El. time (UTC)
Max El. Az.
Max El.
End time (UTC)
End Az.
|